TimeMDT,TemperatureF,Dew PointF,Humidity,Sea Level PressureIn,VisibilityMPH,Wind Direction,Wind SpeedMPH,Gust SpeedMPH,PrecipitationIn,Events,Conditions,WindDirDegrees,DateUTC
1:00 AM,25.5,25.2,99,29.56,-9999.0,NW,9.2,-,N/A,,Unknown,320,2013-09-04 07:00:00
2:00 AM,24.8,24.4,99,29.56,-9999.0,NNW,5.8,-,N/A,,Unknown,330,2013-09-04 08:00:00
3:00 AM,25.0,24.6,99,29.56,-9999.0,NNW,3.5,-,N/A,,Unknown,330,2013-09-04 09:00:00
4:00 AM,24.8,24.4,99,29.56,-9999.0,North,3.5,-,N/A,,Unknown,0,2013-09-04 10:00:00
5:00 AM,24.8,24.4,99,29.56,-9999.0,ENE,4.6,-,N/A,,Unknown,60,2013-09-04 11:00:00
6:00 AM,25,24,97,29.56,,West,1.2,,,,,270,2013-09-04 12:00:00
6:00 AM,25.0,24.6,99,29.56,-9999.0,WSW,2.3,-,N/A,,Unknown,250,2013-09-04 12:00:00
7:00 AM,25.0,24.6,99,29.55,-9999.0,NNW,1.2,-,N/A,,Unknown,330,2013-09-04 13:00:00
8:00 AM,25.0,24.4,98,29.54,-9999.0,WNW,2.3,-,0.01,,Unknown,300,2013-09-04 14:00:00
9:00 AM,24.6,23.2,94,29.53,-9999.0,North,5.8,-,N/A,,Unknown,0,2013-09-04 15:00:00
10:00 AM,25.9,22.3,86,29.52,-9999.0,WSW,1.2,-,N/A,,Unknown,250,2013-09-04 16:00:00
11:00 AM,25.5,22.1,87,29.51,-9999.0,West,4.6,-,N/A,,Unknown,280,2013-09-04 17:00:00
12:00 PM,25,24,94,29.50,,SW,4.6,,,,,220,2013-09-04 18:00:00
12:00 PM,25.2,24.1,96,29.50,-9999.0,SW,4.6,-,N/A,,Unknown,220,2013-09-04 18:00:00
1:00 PM,25.2,23.7,94,29.49,-9999.0,NW,6.9,-,N/A,,Unknown,310,2013-09-04 19:00:00
2:00 PM,24.4,22.5,92,29.49,-9999.0,NW,5.8,-,N/A,,Unknown,320,2013-09-04 20:00:00
3:00 PM,23.9,22.5,94,29.48,-9999.0,WNW,3.5,-,N/A,,Unknown,290,2013-09-04 21:00:00
4:00 PM,23.4,22.1,95,29.49,-9999.0,NNW,4.6,-,0.01,,Unknown,340,2013-09-04 22:00:00
5:00 PM,22.5,21.7,97,29.48,-9999.0,NW,6.9,-,N/A,,Unknown,310,2013-09-04 23:00:00
6:00 PM,22,21,93,29.48,,NNW,4.6,,,,,330,2013-09-05 00:00:00
6:00 PM,22.3,20.8,94,29.48,-9999.0,NNW,4.6,-,N/A,,Unknown,330,2013-09-05 00:00:00
7:00 PM,21.6,21.0,98,29.48,-9999.0,NNW,3.5,-,N/A,,Unknown,330,2013-09-05 01:00:00
8:00 PM,21.6,21.0,98,29.48,-9999.0,NNW,4.6,-,N/A,,Unknown,330,2013-09-05 02:00:00
9:00 PM,20.8,20.3,98,29.49,-9999.0,WNW,3.5,-,N/A,,Unknown,300,2013-09-05 03:00:00
10:00 PM,20.7,19.9,97,29.49,-9999.0,NW,4.6,-,N/A,,Unknown,320,2013-09-05 04:00:00
11:00 PM,20.8,20.3,98,29.49,-9999.0,NW,3.5,-,0.01,,Unknown,320,2013-09-05 05:00:00